GW7014 Weather Reports


time (UTC)temp
C
wind
direction
speed
KPH
gust
KPH
rain 1hr
cm
rain 24hr
cm
rain mn
cm
humidity
%
barometer
mb
20260505024528 14 205 6.4 17.7 0.00 0.00 0.00 57 1010.4
20260505023029 14 233 9.7 17.7 0.00 0.00 0.00 55 1010.4
20260505021529 15 278 9.7 20.9 0.00 0.00 0.00 54 1010.4
20260505020019 15 242 8.0 19.3 0.00 0.00 0.00 53 1010.3
20260505014523 15 210 8.0 24.1 0.00 0.00 0.00 52 1010.3
20260505013026 15 252 8.0 17.7 0.00 0.00 0.00 50 1010.1
20260505011527 16 230 4.8 16.1 0.00 0.00 0.00 49 1009.9
20260505010015 16 209 8.0 24.1 0.00 0.00 0.00 48 1009.7
20260505004535 16 209 4.8 20.9 0.00 0.00 0.00 47 1009.5
20260505003002 16 217 9.7 20.9 0.00 0.00 0.00 46 1009.1
20260505001508 17 150 8.0 22.5 0.00 0.00 0.00 45 1008.7
20260505000018 17 167 9.7 19.3 0.00 0.00 0.00 45 1008.2
20260504234527 18 188 9.7 20.9 0.00 0.00 0.00 43 1008.0
20260504233023 18 220 9.7 27.4 0.00 0.00 0.00 42 1007.8
20260504231519 18 226 12.9 30.6 0.00 0.00 0.00 41 1007.6
20260504230011 19 219 11.3 27.4 0.00 0.00 0.00 39 1007.1
20260504224511 20 252 9.7 20.9 0.00 0.00 0.00 37 1006.7
20260504223019 20 223 6.4 25.7 0.00 0.00 0.00 36 1006.5
20260504221524 21 213 9.7 30.6 0.00 0.00 0.00 33 1006.5
20260504220004 22 229 11.3 20.9 0.00 0.00 0.00 29 1006.4
20260504214516 22 224 9.7 22.5 0.00 0.00 0.00 29 1006.5
20260504213012 22 194 9.7 19.3 0.00 0.00 0.00 28 1006.4
20260504211521 22 247 6.4 17.7 0.00 0.00 0.00 28 1006.3
20260504210027 22 239 1.6 30.6 0.00 0.00 0.00 28 1006.4
20260504204511 23 213 4.8 22.5 0.00 0.00 0.00 28 1006.3
20260504203013 23 244 4.8 16.1 0.00 0.00 0.00 28 1006.4
20260504201519 23 12 9.7 19.3 0.00 0.00 0.00 26 1006.7
20260504200029 23 230 3.2 22.5 0.00 0.00 0.00 27 1006.9
20260504194528 22 231 6.4 24.1 0.00 0.00 0.00 26 1006.7
20260504193020 22 122 9.7 24.1 0.00 0.00 0.00 26 1006.8
20260504191516 22 215 14.5 30.6 0.00 0.00 0.00 25 1006.8
20260504190018 22 236 9.7 17.7 0.00 0.00 0.00 25 1006.9
20260504184525 22 305 9.7 20.9 0.00 0.00 0.00 25 1007.1
20260504183028 22 263 11.3 22.5 0.00 0.00 0.00 26 1007.2
20260504181513 22 258 3.2 16.1 0.00 0.00 0.00 27 1007.2
20260504180017 22 226 6.4 27.4 0.00 0.00 0.00 27 1007.5
20260504174523 21 338 11.3 33.8 0.00 0.00 0.00 28 1007.7
20260504173025 21 220 8.0 38.6 0.00 0.00 0.00 28 1007.7
20260504171538 21 215 9.7 19.3 0.00 0.00 0.00 28 1007.7
20260504081529 7 205 0.0 3.2 0.00 0.03 0.00 60 1010.3
20260504050021 2 254 0.0 0.0 0.00 0.03 0.00 75 1010.4
20260504044527 2 254 0.0 0.0 0.00 0.03 0.00 75 1010.4
20260504043028 3 253 0.0 0.0 0.00 0.03 0.00 74 1010.3
20260504041530 3 253 0.0 0.0 0.00 0.03 0.00 72 1010.3
20260504040023 3 253 0.0 0.0 0.00 0.03 0.00 70 1010.1
20260504034523 3 253 0.0 0.0 0.00 0.03 0.03 70 1010.0
20260504033025 4 253 0.0 0.0 0.00 0.03 0.03 68 1009.9
20260504031528 4 253 0.0 0.0 0.00 0.03 0.03 65 1009.9
20260504030018 4 253 0.0 0.0 0.00 0.03 0.03 66 1009.9